N0BGS Weather Reports


time (UTC)temp
F
wind
direction
speed
knots
gust
knots
rain 1hr
in
rain 24hr
in
rain mn
in
humidity
%
barometer
mb
20260505153004 68 165 7.0 17.4 0.00 0.00 0.00 54 1006.5
20260505152003 69 161 7.0 19.1 0.00 0.00 0.00 53 1006.5
20260505151003 69 159 5.2 13.0 0.00 0.00 0.00 53 1006.6
20260505125003 63 176 4.3 11.3 0.00 0.00 0.00 59 1007.1
20260505124003 62 183 4.3 9.6 0.00 0.00 0.00 60 1007.2
20260505123003 61 165 3.5 8.7 0.00 0.00 0.00 62 1007.3
20260505122003 59 176 3.5 11.3 0.00 0.00 0.00 65 1007.3
20260505121003 58 164 2.6 8.7 0.00 0.00 0.00 68 1007.4
20260505120004 58 171 3.5 8.7 0.00 0.00 0.00 68 1007.4
20260505115003 56 154 2.6 9.6 0.00 0.00 0.00 72 1007.6
20260505114004 54 166 2.6 6.1 0.00 0.00 0.00 77 1007.8
20260505113004 52 156 1.7 7.0 0.00 0.00 0.00 81 1007.8
20260505112004 50 138 1.7 4.3 0.00 0.00 0.00 87 1007.6
20260505111004 48 107 0.9 3.5 0.00 0.00 0.00 93 1007.4
20260505102004 39 0 0.0 0.0 0.00 0.00 0.00 95 1007.6
20260505101004 38 0 0.0 0.0 0.00 0.00 0.00 96 1007.5
20260505100004 38 0 0.0 0.0 0.00 0.00 0.00 95 1007.4
20260505095004 38 0 0.0 0.0 0.00 0.00 0.00 95 1007.5
20260505094004 37 0 0.0 0.0 0.00 0.00 0.00 95 1007.2
20260505093004 37 0 0.0 0.0 0.00 0.00 0.00 95 1007.3
20260505092004 37 0 0.0 0.0 0.00 0.00 0.00 95 1007.2
20260505091004 37 0 0.0 0.0 0.00 0.00 0.00 95 1007.3
20260505090025 37 0 0.0 0.0 0.00 0.00 0.00 95 1007.4
20260505085024 37 0 0.0 0.0 0.00 0.00 0.00 95 1007.4
20260505084004 37 0 0.0 0.0 0.00 0.00 0.00 95 1007.5
20260505083004 37 0 0.0 0.0 0.00 0.00 0.00 95 1007.4
20260505082003 37 0 0.0 0.0 0.00 0.00 0.00 95 1007.5
20260505081003 37 0 0.0 0.0 0.00 0.00 0.00 95 1007.5
20260505080004 37 0 0.0 0.0 0.00 0.00 0.00 94 1007.4
20260505075004 37 0 0.0 0.0 0.00 0.00 0.00 94 1007.5
20260505074003 37 0 0.0 0.0 0.00 0.00 0.00 94 1007.5
20260505073025 37 0 0.0 0.0 0.00 0.00 0.00 94 1007.5
20260505072025 37 0 0.0 0.0 0.00 0.00 0.00 94 1007.4
20260505071003 38 0 0.0 0.0 0.00 0.00 0.00 94 1007.5
20260505070003 38 0 0.0 0.0 0.00 0.00 0.00 94 1007.4
20260505065003 38 0 0.0 0.0 0.00 0.00 0.00 94 1007.4
20260505064003 38 0 0.0 0.0 0.00 0.00 0.00 94 1007.4
20260505063003 38 0 0.0 0.0 0.00 0.00 0.00 94 1007.3
20260505062003 38 0 0.0 0.0 0.00 0.00 0.00 94 1007.3
20260505061003 38 0 0.0 0.0 0.00 0.00 0.00 94 1007.3
20260505060003 38 0 0.0 0.0 0.00 0.00 0.00 94 1007.3
20260505055003 39 0 0.0 0.0 0.00 0.00 0.00 94 1007.4
20260505054024 39 0 0.0 0.0 0.00 0.00 0.00 94 1007.3
20260505053003 39 0 0.0 0.0 0.00 0.00 0.00 93 1007.2
20260505052003 39 0 0.0 0.0 0.00 0.00 0.00 93 1007.1
20260505051003 40 0 0.0 0.0 0.00 0.00 0.00 93 1007.2
20260505041003 42 0 0.0 0.0 0.00 0.00 0.00 92 1007.0
20260505040004 42 0 0.0 0.0 0.00 0.00 0.00 93 1007.0
20260505035003 41 0 0.0 0.0 0.00 0.00 0.00 92 1007.1
20260505034003 42 0 0.0 0.0 0.00 0.00 0.00 91 1007.0
20260505033003 42 0 0.0 0.0 0.00 0.00 0.00 91 1007.0
20260505032024 43 0 0.0 0.0 0.00 0.00 0.00 91 1007.0
20260505031003 43 0 0.0 0.0 0.00 0.00 0.00 90 1006.9
20260505030003 44 0 0.0 0.0 0.00 0.00 0.00 90 1007.0
20260505025003 44 0 0.0 0.0 0.00 0.00 0.00 89 1007.1
20260505024004 45 0 0.0 0.0 0.00 0.00 0.00 89 1007.2
20260505023004 45 0 0.0 0.0 0.00 0.00 0.00 89 1007.2
20260505022004 45 0 0.0 0.0 0.00 0.00 0.00 88 1007.3
20260505021004 46 0 0.0 0.0 0.00 0.00 0.00 88 1007.2
20260505020004 46 0 0.0 0.0 0.00 0.00 0.00 89 1007.2
20260505015004 46 0 0.0 0.0 0.00 0.00 0.00 88 1007.3
20260505014004 47 0 0.0 0.0 0.00 0.00 0.00 87 1007.1
20260505013025 47 0 0.0 0.0 0.00 0.00 0.00 87 1006.9
20260505012004 48 0 0.0 0.0 0.00 0.00 0.00 87 1007.0
20260505011004 48 0 0.0 0.0 0.00 0.00 0.00 87 1006.7
20260505010004 49 0 0.0 0.0 0.00 0.00 0.00 86 1006.6
20260505005004 49 0 0.0 0.0 0.00 0.00 0.00 85 1006.4
20260505004004 50 0 0.0 0.0 0.00 0.00 0.00 84 1006.3
20260505003025 51 0 0.0 0.0 0.00 0.00 0.00 82 1006.1
20260505002025 52 0 0.0 0.0 0.00 0.00 0.00 80 1005.9
20260505001004 52 0 0.0 0.0 0.00 0.00 0.00 76 1005.7
20260505000004 54 0 0.0 0.0 0.00 0.00 0.00 73 1005.7
20260504235004 55 0 0.0 0.0 0.00 0.00 0.00 72 1005.6
20260504234004 56 0 0.0 0.0 0.00 0.00 0.00 72 1005.5
20260504233004 57 0 0.0 0.0 0.00 0.00 0.00 67 1005.4
20260504232004 58 0 0.0 0.0 0.00 0.00 0.00 65 1005.3
20260504231025 59 0 0.0 0.0 0.00 0.00 0.00 63 1005.2
20260504230025 60 251 0.0 2.6 0.00 0.00 0.00 66 1005.1
20260504225004 60 242 1.7 6.1 0.00 0.00 0.00 58 1005.1
20260504224004 60 258 0.9 6.1 0.00 0.00 0.00 61 1005.0
20260504223004 60 250 0.9 6.1 0.00 0.00 0.00 61 1004.9
20260504222025 60 257 0.9 6.1 0.00 0.00 0.00 60 1004.9
20260504221025 61 271 0.9 6.1 0.00 0.00 0.00 56 1004.9
20260504220004 61 245 1.7 7.0 0.00 0.00 0.00 58 1004.9
20260504215004 61 251 4.3 13.9 0.00 0.00 0.00 56 1005.0
20260504214004 62 263 2.6 10.4 0.00 0.00 0.00 56 1005.0
20260504213024 63 263 3.5 9.6 0.00 0.00 0.00 52 1004.8
20260504212024 63 268 3.5 13.9 0.00 0.00 0.00 54 1004.8
20260504211004 64 263 5.2 17.4 0.00 0.00 0.00 52 1004.7
20260504210004 64 234 5.2 13.0 0.00 0.00 0.00 51 1004.6
20260504205003 64 260 6.1 13.9 0.00 0.00 0.00 53 1004.4
20260504204024 64 254 7.0 18.2 0.00 0.00 0.00 52 1004.4
20260504203003 63 248 5.2 15.6 0.00 0.00 0.00 53 1004.4
20260504202003 62 248 3.5 13.0 0.00 0.00 0.00 56 1004.4
20260504201003 62 258 6.1 12.2 0.00 0.00 0.00 55 1004.3
20260504200003 63 261 6.1 20.0 0.00 0.00 0.00 54 1004.1
20260504195024 62 241 5.2 13.9 0.00 0.00 0.00 57 1004.1
20260504194003 60 235 7.0 20.9 0.00 0.00 0.00 58 1004.2
20260504193003 61 234 6.1 20.0 0.00 0.00 0.00 57 1004.2
20260504192003 62 215 5.2 11.3 0.00 0.01 0.00 56 1004.2
20260504191003 62 245 6.1 16.5 0.00 0.01 0.00 57 1004.2
20260504190003 60 236 7.0 20.0 0.00 0.02 0.00 60 1004.4
20260504185024 59 231 7.0 14.8 0.00 0.02 0.00 63 1004.4
20260504184024 58 238 6.1 16.5 0.00 0.02 0.00 62 1004.6
20260504183003 59 209 8.7 15.6 0.00 0.03 0.00 60 1004.7
20260504182003 60 217 5.2 13.9 0.00 0.03 0.00 60 1004.6
20260504181003 59 227 7.0 16.5 0.00 0.04 0.00 59 1004.9
20260504180003 58 216 6.1 13.9 0.00 0.04 0.00 62 1005.0
20260504175024 57 214 4.3 10.4 0.00 0.05 0.00 64 1005.0
20260504174024 56 238 5.2 13.0 0.00 0.06 0.00 64 1005.2
20260504173004 56 227 4.3 10.4 0.00 0.07 0.00 61 1005.1
20260504172004 56 231 5.2 13.0 0.00 0.07 0.00 60 1005.1
20260504171004 57 222 2.6 8.7 0.00 0.08 0.00 59 1004.9